STARLINK-34702, 64908

Orbit data source: Space-Track

STARLINK-34702, 64908 is a payload satellite owned by SpaceX/Seattle (US) in LEO that was launched on Sat, 26 Jul 2025 UTC via an FALCON 9 launch vehicle from the Air Force Eastern Test Range (AFETR). Payload-class satellites include a variety of spacecraft equipped with specific instruments for various scientific and technological missions. These include communications satellites like Starlink; space stations such as the ISS; scientific satellites like the Hubble; Earth observation satellites from companies like Planet Labs, Umbra, and HawkEye 360; GPS; miniature CubeSats for education and research; and military/defense satellites.

Loading next visibility...
Identifier
64908, 2025-157E
Orbit
LEO
Country
Flag of USUS
Related business
Manufacturer
SpaceX/Seattle
Mission
Operational Commercial Communications
Bus & Motor
STARLINK V2MO, Unknown motor
Mass
575 kg wet, ~530 kg dry
Launch date (UTC)
2025-07-26 (4 months ago)
Launch vehicle
FALCON 9
Launch site
Air Force Eastern Test Range (AFETR)
Object type
Payload
Rocket body
Debris
Shape & HBR
Box + 2 Pan, 17.7 m
Radar Cross Section
36.964 m², Large (>1 m²)

Expand to show TLE details & history
Last TLE update: 16 hours ago

TLE from 16 hours ago
0 STARLINK-34702
1 64908U 25157E   25340.51923559  .00098763  00000-0  24434-2 0  9992
2 64908  53.1589  62.3687 0001648  62.4527 297.6645 15.39666992 21803
Epoch: 2025-12-06T12:27Z
TLE epoch observation values (Epoch: 2025-12-06T12:27:41.954Z)
Latitude
-0.00006°
Longitude
159.89804°
Altitude
447.474 km
Speed
7.645 km/s
True Right ascension
04h 09m 28s
True Declination
0° 00' 00"
Sunlit
Object was in full shadow at epoch
Visualization orbit readout
Latitude
Unknown
Longitude
Unknown
Altitude
Unknown
Speed
Unknown
Apparent Right ascension
Unknown
Apparent Declination
Unknown
Sunlit
N/A
Visualization observer readout
Local Sidereal Time
02:31:52
Azimuth
Unknown
Elevation
Unknown
Doppler factor
Unknown
Orbital elements
Apogee altitude
448.476 km
Perigee altitude
446.226 km
Semi-major axis
6,825.488 km
Eccentricity
0.00016
Inclination
53.1589°
RAAN
62.3687°
Arg. of periapsis
62.4527°
True anomaly
297.64777°
Mean anomaly
297.6645°
Eccentric anomaly
297.65614°
Mean motion
3.84895 °/min
Orbital period
93.53 mins
BSTAR
0.0024434
Loading maneuver chart data...
Computing Atmospheric mass density...
Loading historical data...
Loading historical data...
Loading historical data...
Loading historical data...
Loading historical data...
Loading historical data...
Loading historical data...

Documentation

Showing up to 5 results
|